TimeEDT,TemperatureF,Dew PointF,Humidity,Sea Level PressureIn,VisibilityMPH,Wind Direction,Wind SpeedMPH,Gust SpeedMPH,PrecipitationIn,Events,Conditions,WindDirDegrees,DateUTC
12:12 AM,47.7,44.1,87,30.11,10.0,Calm,Calm,-,N/A,,Clear,0,2013-06-19 04:12:00
12:33 AM,47.3,44.6,90,30.12,10.0,Calm,Calm,-,N/A,,Clear,0,2013-06-19 04:33:00
12:52 AM,46.0,44.4,94,30.12,10.0,Calm,Calm,-,N/A,,Clear,0,2013-06-19 04:52:00
1:12 AM,45.7,43.9,93,30.12,10.0,North,-9999.0,-,N/A,,Clear,0,2013-06-19 05:12:00
1:32 AM,45.5,43.9,94,30.12,10.0,Calm,Calm,-,N/A,,Clear,0,2013-06-19 05:32:00
1:52 AM,45.0,43.5,95,30.12,10.0,North,-9999.0,-,N/A,,Clear,0,2013-06-19 05:52:00
2:11 AM,44.4,42.8,94,30.13,10.0,Calm,Calm,-,N/A,,Clear,0,2013-06-19 06:11:00
2:32 AM,43.2,41.9,95,30.13,10.0,Calm,Calm,-,N/A,,Clear,0,2013-06-19 06:32:00
2:52 AM,43.3,42.3,96,30.13,10.0,Calm,Calm,-,N/A,,Clear,0,2013-06-19 06:52:00
3:12 AM,42.8,41.7,96,30.13,7.0,Calm,Calm,-,N/A,,Clear,0,2013-06-19 07:12:00
3:32 AM,41.9,40.8,96,30.14,10.0,North,-9999.0,-,N/A,,Clear,0,2013-06-19 07:32:00
3:52 AM,42.1,41.2,97,30.15,10.0,Calm,Calm,-,N/A,,Clear,0,2013-06-19 07:52:00
4:12 AM,41.7,40.8,97,30.15,10.0,Calm,Calm,-,N/A,,Clear,0,2013-06-19 08:12:00
4:33 AM,41.0,40.1,97,30.15,10.0,Calm,Calm,-,N/A,,Clear,0,2013-06-19 08:33:00
4:52 AM,41.2,40.3,97,30.16,10.0,North,-9999.0,-,N/A,,Clear,0,2013-06-19 08:52:00
5:13 AM,41.0,40.1,97,30.17,10.0,North,-9999.0,-,N/A,,Clear,0,2013-06-19 09:13:00
5:32 AM,40.6,39.7,97,30.18,10.0,North,-9999.0,-,N/A,,Clear,0,2013-06-19 09:32:00
5:52 AM,39.6,38.7,97,30.18,10.0,North,-9999.0,-,N/A,,Clear,0,2013-06-19 09:52:00
6:13 AM,40.5,39.6,97,30.18,10.0,NNE,6.9,-,N/A,,Clear,20,2013-06-19 10:13:00
6:32 AM,40.6,39.7,97,30.19,10.0,Calm,Calm,-,N/A,,Clear,0,2013-06-19 10:32:00
6:52 AM,42.3,41.4,97,30.19,10.0,North,-9999.0,-,N/A,,Clear,0,2013-06-19 10:52:00
7:13 AM,44.2,43.3,97,30.19,10.0,North,-9999.0,-,N/A,,Clear,0,2013-06-19 11:13:00
7:32 AM,46.6,44.8,93,30.19,10.0,Calm,Calm,-,N/A,,Clear,0,2013-06-19 11:32:00
7:52 AM,49.8,45.0,83,30.19,10.0,North,-9999.0,-,N/A,,Clear,0,2013-06-19 11:52:00
8:13 AM,52.9,45.9,77,30.19,10.0,Calm,Calm,-,N/A,,Clear,0,2013-06-19 12:13:00
8:32 AM,55.2,46.4,72,30.19,10.0,Calm,Calm,-,N/A,,Clear,0,2013-06-19 12:32:00
8:52 AM,58.1,45.0,62,30.18,10.0,SSE,3.5,-,N/A,,Clear,150,2013-06-19 12:52:00
9:13 AM,60.1,43.7,55,30.19,10.0,North,-9999.0,-,N/A,,Clear,0,2013-06-19 13:13:00
9:32 AM,61.7,43.5,51,30.19,10.0,North,-9999.0,-,N/A,,Clear,0,2013-06-19 13:32:00
9:53 AM,63.7,43.2,47,30.19,10.0,SSE,4.6,-,N/A,,Clear,150,2013-06-19 13:53:00
10:13 AM,65.7,41.7,42,30.18,10.0,South,4.6,-,N/A,,Clear,180,2013-06-19 14:13:00
10:32 AM,66.4,40.3,38,30.19,10.0,South,5.8,-,N/A,,Clear,190,2013-06-19 14:32:00
10:53 AM,67.3,39.2,36,30.18,10.0,South,4.6,-,N/A,,Clear,180,2013-06-19 14:53:00
11:12 AM,68.2,39.0,34,30.18,10.0,South,5.8,-,N/A,,Clear,180,2013-06-19 15:12:00
11:32 AM,68.5,38.7,34,30.18,10.0,South,5.8,-,N/A,,Clear,170,2013-06-19 15:32:00
11:53 AM,69.6,39.2,33,30.18,10.0,North,-9999.0,-,N/A,,Clear,0,2013-06-19 15:53:00
12:12 PM,70.0,38.8,32,30.17,10.0,North,-9999.0,-,N/A,,Clear,0,2013-06-19 16:12:00
12:32 PM,70.3,38.7,31,30.16,10.0,North,-9999.0,-,N/A,,Clear,0,2013-06-19 16:32:00
12:53 PM,70.9,39.2,32,30.16,10.0,Calm,Calm,-,N/A,,Clear,0,2013-06-19 16:53:00
1:12 PM,71.6,39.7,31,30.15,10.0,North,-9999.0,-,N/A,,Clear,0,2013-06-19 17:12:00
1:33 PM,71.6,38.5,30,30.14,10.0,North,-9999.0,-,N/A,,Clear,0,2013-06-19 17:33:00
1:53 PM,72.0,40.5,32,30.14,10.0,North,-9999.0,-,N/A,,Clear,0,2013-06-19 17:53:00
2:12 PM,72.0,39.7,31,30.14,10.0,North,-9999.0,-,N/A,,Clear,0,2013-06-19 18:12:00
2:33 PM,73.2,41.0,31,30.13,10.0,Calm,Calm,-,N/A,,Clear,0,2013-06-19 18:33:00
2:53 PM,72.9,40.3,31,30.13,10.0,North,-9999.0,-,N/A,,Clear,0,2013-06-19 18:53:00
3:12 PM,73.2,40.6,31,30.12,10.0,North,-9999.0,-,N/A,,Clear,0,2013-06-19 19:12:00
3:33 PM,74.3,40.8,30,30.12,10.0,WSW,3.5,-,N/A,,Clear,240,2013-06-19 19:33:00
3:52 PM,75.0,41.9,30,30.11,10.0,North,-9999.0,-,N/A,,Clear,0,2013-06-19 19:52:00
4:12 PM,74.1,41.0,30,30.10,10.0,West,4.6,-,N/A,,Clear,280,2013-06-19 20:12:00
4:33 PM,74.1,39.7,29,30.10,10.0,Calm,Calm,-,N/A,,Clear,0,2013-06-19 20:33:00
4:52 PM,73.2,45.3,37,30.10,10.0,North,-9999.0,-,N/A,,Clear,0,2013-06-19 20:52:00
5:13 PM,70.2,44.8,40,30.10,10.0,North,-9999.0,-,N/A,,Clear,0,2013-06-19 21:13:00
5:33 PM,69.8,44.1,39,30.11,10.0,North,-9999.0,-,N/A,,Clear,0,2013-06-19 21:33:00
5:52 PM,69.6,43.3,39,30.10,10.0,North,-9999.0,-,N/A,,Clear,0,2013-06-19 21:52:00
6:13 PM,69.3,43.0,39,30.10,10.0,North,-9999.0,-,N/A,,Clear,0,2013-06-19 22:13:00
6:33 PM,68.9,42.6,39,30.11,10.0,North,10.4,-,N/A,,Clear,350,2013-06-19 22:33:00
6:52 PM,68.9,43.0,39,30.11,10.0,North,10.4,-,N/A,,Clear,360,2013-06-19 22:52:00
7:13 PM,68.4,43.5,41,30.12,10.0,NNW,5.8,-,N/A,,Clear,340,2013-06-19 23:13:00
7:33 PM,68.0,43.2,41,30.12,10.0,North,-9999.0,-,N/A,,Clear,0,2013-06-19 23:33:00
7:52 PM,68.0,43.3,41,30.12,10.0,Calm,Calm,-,N/A,,Clear,0,2013-06-19 23:52:00
8:13 PM,67.1,44.4,44,30.12,10.0,Calm,Calm,-,N/A,,Clear,0,2013-06-20 00:13:00
8:33 PM,66.0,45.0,47,30.12,10.0,North,-9999.0,-,N/A,,Clear,0,2013-06-20 00:33:00
8:53 PM,62.6,47.8,58,30.12,10.0,North,-9999.0,-,N/A,,Clear,0,2013-06-20 00:53:00
9:13 PM,60.3,48.6,65,30.12,10.0,Calm,Calm,-,N/A,,Clear,0,2013-06-20 01:13:00
9:32 PM,58.1,48.2,70,30.12,10.0,North,-9999.0,-,N/A,,Clear,0,2013-06-20 01:32:00
9:53 PM,55.4,48.0,76,30.12,10.0,North,-9999.0,-,N/A,,Clear,0,2013-06-20 01:53:00
10:13 PM,54.3,48.4,80,30.12,10.0,North,-9999.0,-,N/A,,Clear,0,2013-06-20 02:13:00
10:32 PM,54.1,48.4,81,30.13,10.0,North,4.6,-,N/A,,Clear,350,2013-06-20 02:32:00
10:53 PM,53.1,47.7,82,30.13,10.0,NNE,5.8,-,N/A,,Clear,20,2013-06-20 02:53:00
11:13 PM,52.5,48.0,85,30.13,10.0,North,3.5,-,N/A,,Clear,350,2013-06-20 03:13:00
11:32 PM,50.9,47.5,88,30.13,10.0,Calm,Calm,-,N/A,,Clear,0,2013-06-20 03:32:00
11:52 PM,50.5,47.3,89,30.14,10.0,Calm,Calm,-,N/A,,Clear,0,2013-06-20 03:52:00